User: anonymous
Location: Caltech
(34.1382°N, 118.1253°W)
Time: 06:36:34
(UTC-07:00)
Language:

Cosmos 1833 - Orbit

View from above orbital plane
View from above orbital plane
View from above satellite
View from above satellite

Ground track
Ground track

The orbit data is extracted from the following two-line orbital elements,

1 17589U 87027A   14107.21611031 -.00000009  00000-0  20948-4 0  6930
2 17589 070.9200 096.0289 0008931 245.8404 195.0148 14.12847508396895
Epoch (UTC): 17 April 2014 05:11:11
Eccentricity: 0.0008931
inclination: 70.9200°
perigee height: 843 km
apogee height: 856 km
right ascension of ascending node: 96.0289°
argument of perigee: 245.8404°
revolutions per day: 14.12847508
mean anomaly at epoch: 195.0148°
orbit number at epoch: 39689

The dashed part of the orbit path shows where the satellite is in the earth's shadow,  

DLR